Regional Weather Roundup
Issued by NWS Cleveland, OH

Home | Current Version | Previous Version | Graphics & Text | Print | Product List | Glossary On
Versions: 1 2 3 4 5 6 7 8 9 10 11 12 13 14 15 16 17 18 19 20 21 22 23 24 25 26 27 28 29 30 31 32 33 34 35 36 37 38 39 40 41 42 43 44 45 46 47 48 49 50
000
ASUS41 KCLE 260402
RWRCLE
OHIO REGIONAL WEATHER ROUNDUP
NATIONAL WEATHER SERVICE CLEVELAND, OH
1100 PM EST THU DEC 25 2014

NOTE: "FAIR" INDICATES FEW OR NO CLOUDS BELOW 12,000 FEET WITH NO
SIGNIFICANT WEATHER AND/OR OBSTRUCTIONS TO VISIBILITY.

OHZ001>008-015>018-024>027-034-035-043-044-260500-
   NORTHWEST OHIO

CITY           SKY/WX    TMP DP  RH WIND       PRES   REMARKS
DEFIANCE       PTCLDY    34  30  85 S6        30.14R WCI  29
FINDLAY        PTCLDY    33  29  85 S9        30.14S WCI  25
TOLEDO EXPRESS PTCLDY    33  29  85 S7        30.13S WCI  27
TOLEDO EXEC    CLEAR     34  29  82 S10       30.14F WCI  26
LIMA           CLEAR     36  30  79 S12       30.14S
$$

OHZ009>014-019>023-028>033-038-089-260500-
   NORTHEAST OHIO

CITY           SKY/WX    TMP DP  RH WIND       PRES   REMARKS
CLE-HOPKINS    MOCLDY    37  28  70 SW8       30.20R
CLE-LAKEFRONT  MOCLDY    38  28  67 SW12      30.18R
CUY CO. ARPT   MOCLDY    39  30  70 W14       30.17F
LORAIN-ELYRIA  PTCLDY    34  29  82 SW8       30.17S WCI  27
ASHTABULA      CLOUDY    37  29  72 SW8       30.16F
AKRON-CANTON   CLOUDY    38  29  70 SW7       30.18F
WOOSTER        CLEAR     34  29  82 SW6       30.19R WCI  29
MANSFIELD      CLEAR     33  29  85 S9        30.17R WCI  25
YOUNGSTOWN     CLOUDY    37  29  72 SW9       30.16F
$$

OHZ042-051>053-060>062-070>072-077>081-260500-
  SOUTHWEST OHIO

CITY           SKY/WX    TMP DP  RH WIND       PRES   REMARKS
CINC-COVINGTON CLEAR     32  27  81 S6        30.17F WCI  26
CINC-LUNKEN    FOG       26  26 100 CALM      30.21F VSB 3/4
HAMILTON       CLEAR     29  28  96 SE3       30.19F
DAYTON         CLEAR     35  30  82 S10       30.16F WCI  27
WRIGHT-PAT AFB CLEAR     33  29  88 SE6       30.17F WCI  27
DAYTON GENERAL CLEAR     34  30  85 S8        30.16F WCI  27
WILMINGTON     CLEAR     33  28  81 S5        30.17F WCI  29
$$

OHZ036-037-039>041-045>050-054>059-063>069-073>076-082>088-260500-
  CENTRAL AND SOUTHEAST OHIO

CITY           SKY/WX    TMP DP  RH WIND       PRES   REMARKS
COLUMBUS       PTCLDY    35  29  78 S6        30.21S
OSU AIRPORT    CLEAR     35  29  78 S8        30.20R WCI  29
BOLTON FIELD   NOT AVBL
RICKENBACK AFB PTCLDY    33  29  85 S6        30.21S WCI  28
NEWARK         MOCLDY    37  30  75 S7        30.21S
MARION         CLEAR     32  28  85 S7        30.18S WCI  26
LANCASTER      PTCLDY    36  30  79 S3        30.22F
ZANESVILLE     CLOUDY    37  29  72 S6        30.22F
NEW PHILLY     CLOUDY    40  30  67 VRB7      30.22F
$$


USA.gov is the U.S. government's official web portal to all federal, state and local government web resources and services.